Satellite: NOAA-11 Catalog number: 19531 Epoch time: 12235.75575558 Element set: 0031 Inclination: 098.7306 deg RA of node: 319.5093 deg Eccentricity: 0.0011818 Arg of perigee: 036.8027 deg Mean anomaly: 323.3954 deg Mean motion: 14.14976599 rev/day Decay rate: -1.82e-06 rev/day^2 Epoch rev: 23392 Checksum: 318
Satellite: NOAA-12 Catalog number: 21263 Epoch time: 12235.93863517 Element set: 0528 Inclination: 098.7268 deg RA of node: 257.2837 deg Eccentricity: 0.0014254 Arg of perigee: 011.2040 deg Mean anomaly: 348.9454 deg Mean motion: 14.25513023 rev/day Decay rate: 2.0e-07 rev/day^2 Epoch rev: 10606 Checksum: 274
Satellite: MET-3/5 Catalog number: 21655 Epoch time: 12236.83642450 Element set: 487 Inclination: 082.5543 deg RA of node: 104.4039 deg Eccentricity: 0.0014056 Arg of perigee: 149.7291 deg Mean anomaly: 210.4646 deg Mean motion: 13.17038201 rev/day Decay rate: 1.32e-06 rev/day^2 Epoch rev: 1079 Checksum: 271
Satellite: MET-2/21 Catalog number: 22782 Epoch time: 12236.76747184 Element set: 507 Inclination: 082.5517 deg RA of node: 338.8909 deg Eccentricity: 0.0021641 Arg of perigee: 326.7129 deg Mean anomaly: 033.2681 deg Mean motion: 13.83688709 rev/day Decay rate: 9.6e-07 rev/day^2 Epoch rev: 95851 Checksum: 338
Satellite: OKEAN-4 Catalog number: 23317 Epoch time: 12235.92595690 Element set: 0013 Inclination: 082.5437 deg RA of node: 328.8071 deg Eccentricity: 0.0022764 Arg of perigee: 128.3514 deg Mean anomaly: 231.9752 deg Mean motion: 14.83902877 rev/day Decay rate: 5.67e-06 rev/day^2 Epoch rev: 96470 Checksum: 317
Satellite: NOAA-14 Catalog number: 23455 Epoch time: 12235.92130433 Element set: 0017 Inclination: 098.8256 deg RA of node: 318.5749 deg Eccentricity: 0.0010069 Arg of perigee: 122.4332 deg Mean anomaly: 237.7813 deg Mean motion: 14.13866627 rev/day Decay rate: 3.0e-08 rev/day^2 Epoch rev: 91022 Checksum: 282
Satellite: NOAA-15 Catalog number: 25338 Epoch time: 12235.96731380 Element set: 0375 Inclination: 098.6957 deg RA of node: 222.2662 deg Eccentricity: 0.0009624 Arg of perigee: 276.4529 deg Mean anomaly: 083.5560 deg Mean motion: 14.25108618 rev/day Decay rate: 7.4e-07 rev/day^2 Epoch rev: 74236 Checksum: 321
Satellite: RESURS Catalog number: 25394 Epoch time: 12236.91244704 Element set: 167 Inclination: 098.3264 deg RA of node: 221.6042 deg Eccentricity: 0.0002397 Arg of perigee: 054.0331 deg Mean anomaly: 306.1071 deg Mean motion: 14.24292454 rev/day Decay rate: -1.1e-07 rev/day^2 Epoch rev: 73404 Checksum: 254
Satellite: FENGYUN1 Catalog number: 25730 Epoch time: 12236.92776633 Element set: 678 Inclination: 098.8498 deg RA of node: 194.7487 deg Eccentricity: 0.0018162 Arg of perigee: 164.5244 deg Mean anomaly: 195.6478 deg Mean motion: 14.09712036 rev/day Decay rate: 3.76e-06 rev/day^2 Epoch rev: 68415 Checksum: 348
Satellite: OKEAN-0 Catalog number: 25860 Epoch time: 12235.91132474 Element set: 0716 Inclination: 097.9431 deg RA of node: 197.2169 deg Eccentricity: 0.0001825 Arg of perigee: 057.4495 deg Mean anomaly: 302.6889 deg Mean motion: 14.74270187 rev/day Decay rate: 1.98e-06 rev/day^2 Epoch rev: 70440 Checksum: 317
Satellite: NOAA-16 Catalog number: 26536 Epoch time: 12235.89378853 Element set: 0864 Inclination: 099.0877 deg RA of node: 279.0297 deg Eccentricity: 0.0009810 Arg of perigee: 254.9819 deg Mean anomaly: 105.0254 deg Mean motion: 14.12771750 rev/day Decay rate: 2.57e-06 rev/day^2 Epoch rev: 61445 Checksum: 339
Satellite: NOAA-17 Catalog number: 27453 Epoch time: 12235.75271775 Element set: 0809 Inclination: 098.3330 deg RA of node: 259.4192 deg Eccentricity: 0.0011112 Arg of perigee: 326.0892 deg Mean anomaly: 033.9570 deg Mean motion: 14.24472389 rev/day Decay rate: 1.07e-06 rev/day^2 Epoch rev: 52823 Checksum: 303
Satellite: NOAA-18 Catalog number: 28654 Epoch time: 12235.69008965 Element set: 0292 Inclination: 099.0533 deg RA of node: 194.3533 deg Eccentricity: 0.0014100 Arg of perigee: 331.9003 deg Mean anomaly: 028.1403 deg Mean motion: 14.11686914 rev/day Decay rate: -7.1e-07 rev/day^2 Epoch rev: 37394 Checksum: 290
Satellite: NOAA-19 Catalog number: 33591 Epoch time: 12235.71292302 Element set: 0481 Inclination: 098.8663 deg RA of node: 174.6871 deg Eccentricity: 0.0013604 Arg of perigee: 189.8622 deg Mean anomaly: 170.2280 deg Mean motion: 14.11373225 rev/day Decay rate: -1.07e-06 rev/day^2 Epoch rev: 18239 Checksum: 298
/EX SB KEPS @ AMSAT $ORB12236.M Orbital Elements 12236.MISC
HR AMSAT ORBITAL ELEMENTS FOR MANNED AND MISCELLANEOUS SATELLITES FROM WA5QGD FORT WORTH,TX August 23, 2012 Send SUBSCRIBE KEPS/UNSUBSCRIBE KEPS to m[email protected] only BID: ORB12236.M TO ALL RADIO AMATEURS BT
Satellite: HUBBLE Catalog number: 20580 Epoch time: 12234.94550393 Element set: 57 Inclination: 028.4707 deg RA of node: 073.1580 deg Eccentricity: 0.0003091 Arg of perigee: 042.7334 deg Mean anomaly: 317.3482 deg Mean motion: 15.02700656 rev/day Decay rate: 1.009e-05 rev/day^2 Epoch rev: 2463 Checksum: 258
Satellite: ISS Catalog number: 25544 Epoch time: 12236.87676541 Element set: 166 Inclination: 051.6470 deg RA of node: 144.4435 deg Eccentricity: 0.0014946 Arg of perigee: 353.5533 deg Mean anomaly: 123.2691 deg Mean motion: 15.50059634 rev/day Decay rate: 1.686e-05 rev/day^2 Epoch rev: 78854 Checksum: 313
Satellite: CO-58 Catalog number: 28895 Epoch time: 12235.59870461 Element set: 0259 Inclination: 097.9058 deg RA of node: 098.9223 deg Eccentricity: 0.0016857 Arg of perigee: 306.1371 deg Mean anomaly: 053.8293 deg Mean motion: 14.60712224 rev/day Decay rate: 5.21e-06 rev/day^2 Epoch rev: 36335 Checksum: 330
Satellite: FALCON Catalog number: 30776 Epoch time: 12235.40633900 Element set: 0430 Inclination: 035.4352 deg RA of node: 232.2498 deg Eccentricity: 0.0002603 Arg of perigee: 261.4381 deg Mean anomaly: 098.6043 deg Mean motion: 15.07969461 rev/day Decay rate: 1.876e-05 rev/day^2 Epoch rev: 30025 Checksum: 274
Satellite: MAST Catalog number: 31126 Epoch time: 12235.96555361 Element set: 0552 Inclination: 097.8745 deg RA of node: 243.1648 deg Eccentricity: 0.0092498 Arg of perigee: 262.6241 deg Mean anomaly: 096.4438 deg Mean motion: 14.54230109 rev/day Decay rate: 2.53e-06 rev/day^2 Epoch rev: 28397 Checksum: 312
Satellite: CAPE1 Catalog number: 31130 Epoch time: 12236.53898561 Element set: 549 Inclination: 097.8837 deg RA of node: 240.0525 deg Eccentricity: 0.0100181 Arg of perigee: 274.4988 deg Mean anomaly: 084.4767 deg Mean motion: 14.53034513 rev/day Decay rate: 4.34e-06 rev/day^2 Epoch rev: 28355 Checksum: 307
Satellite: COMPASS Catalog number: 32787 Epoch time: 12236.82730754 Element set: 389 Inclination: 097.7943 deg RA of node: 296.6546 deg Eccentricity: 0.0014991 Arg of perigee: 194.6164 deg Mean anomaly: 165.4563 deg Mean motion: 14.84225989 rev/day Decay rate: 9.53e-06 rev/day^2 Epoch rev: 23384 Checksum: 357
Satellite: AAUSAT2 Catalog number: 32788 Epoch time: 12236.84924244 Element set: 382 Inclination: 097.7955 deg RA of node: 297.0956 deg Eccentricity: 0.0014394 Arg of perigee: 194.0356 deg Mean anomaly: 166.0449 deg Mean motion: 14.84563105 rev/day Decay rate: 6.39e-06 rev/day^2 Epoch rev: 23387 Checksum: 340
Satellite: DO-64 Catalog number: 32789 Epoch time: 12235.74796000 Element set: 0399 Inclination: 097.8061 deg RA of node: 298.3027 deg Eccentricity: 0.0014420 Arg of perigee: 194.5780 deg Mean anomaly: 165.5014 deg Mean motion: 14.86208810 rev/day Decay rate: 2.419e-05 rev/day^2 Epoch rev: 23376 Checksum: 319
Satellite: CO-66 Catalog number: 32791 Epoch time: 12236.70957796 Element set: 380 Inclination: 097.7941 deg RA of node: 296.2253 deg Eccentricity: 0.0015259 Arg of perigee: 195.4389 deg Mean anomaly: 164.6356 deg Mean motion: 14.83600322 rev/day Decay rate: 3.87e-06 rev/day^2 Epoch rev: 23375 Checksum: 344
Satellite: RS-30 Catalog number: 32953 Epoch time: 12236.57793380 Element set: 79 Inclination: 082.4973 deg RA of node: 253.2301 deg Eccentricity: 0.0019158 Arg of perigee: 156.7697 deg Mean anomaly: 203.4255 deg Mean motion: 12.43027021 rev/day Decay rate: 1.0e-07 rev/day^2 Epoch rev: 19293 Checksum: 290
Satellite: PHARMSAT Catalog number: 35002 Epoch time: 12226.86484473 Element set: 78 Inclination: 040.4341 deg RA of node: 050.6671 deg Eccentricity: 0.0012079 Arg of perigee: 300.9773 deg Mean anomaly: 059.0492 deg Mean motion: 16.39309245 rev/day Decay rate: 7.728342e-02 rev/day^2 Epoch rev: 18355 Checksum: 302
Satellite: METEOR-M Catalog number: 35865 Epoch time: 12236.70431918 Element set: 710 Inclination: 098.6486 deg RA of node: 289.7427 deg Eccentricity: 0.0001878 Arg of perigee: 201.7410 deg Mean anomaly: 158.3685 deg Mean motion: 14.21867469 rev/day Decay rate: -3.0e-07 rev/day^2 Epoch rev: 15219 Checksum: 318
Satellite: RS-38 Catalog number: 35869 Epoch time: 12236.78572638 Element set: 712 Inclination: 098.6436 deg RA of node: 289.8069 deg Eccentricity: 0.0004006 Arg of perigee: 208.8547 deg Mean anomaly: 151.2408 deg Mean motion: 14.22083210 rev/day Decay rate: 2.4e-07 rev/day^2 Epoch rev: 15222 Checksum: 307
Satellite: JUGNU Catalog number: 37839 Epoch time: 12235.52537067 Element set: 211 Inclination: 019.9645 deg RA of node: 316.3534 deg Eccentricity: 0.0018474 Arg of perigee: 234.0310 deg Mean anomaly: 125.8295 deg Mean motion: 14.12074641 rev/day Decay rate: 6.20e-06 rev/day^2 Epoch rev: 4463 Checksum: 274
Satellite: SRMSAT Catalog number: 37841 Epoch time: 12235.52871304 Element set: 212 Inclination: 019.9758 deg RA of node: 322.5024 deg Eccentricity: 0.0012181 Arg of perigee: 199.4425 deg Mean anomaly: 160.5515 deg Mean motion: 14.10155568 rev/day Decay rate: 2.64e-06 rev/day^2 Epoch rev: 4456 Checksum: 274
